Lancaster, SC

12:28 AM EDT on May 21, 2018 (GMT -0400)
Lancaster County-McWhirter

Weather History for KLKR - October, 2012

Change the Weather History Date:

Tuesday, October 2, 2012

  Actual Average (WUND) Record (WUND)
Temperature  
Mean Temperature 76 °F -  
Max Temperature 84 °F - - (-1)
Min Temperature 68 °F - - (-1)
Cooling Degree Days 11    
Growing Degree Days 26 (Base 50)    
Moisture  
Dew Point 74 °F    
Average Humidity 94    
Maximum Humidity 100    
Minimum Humidity 66    
Precipitation  
Precipitation 0.00 in - - ()
Sea Level Pressure  
Sea Level Pressure 29.85 in    
Wind  
Wind Speed 3 mph (South)    
Max Wind Speed 8 mph    
Max Gust Speed -    
Visibility 8 miles    
Events Rain    
Averages and records for this station are not official NWS values.
T = Trace of Precipitation, MM = Missing Value Source: NWS Daily Summary

Daily Weather History Graph

Daily Weather History Graph

Search for Another Location

Airport or City:

Astronomy

Oct. 02, 2012 Rise Set
Actual Time 7:19 AM EDT 7:05 PM EDT
Civil Twilight 6:54 AM EDT 7:30 PM EDT
Nautical Twilight 6:24 AM EDT 7:59 PM EDT
Astronomical Twilight 5:55 AM EDT 8:29 PM EDT
Moon 8:25 PM EDT (10/2) 9:37 AM EDT (10/2)
Length of Visible Light 12h 36m
Length of Day
11h 46m
Waning Gibbous, 94% of the Moon is Illuminated
Oct 2
Waning Gibbous
Oct 8
Last Quarter
Oct 15
New
Oct 21
First Quarter
Oct 29
Full

Hourly Weather History & Observations

Time (EDT) Temp. Heat Index Dew Point Humidity Pressure Visibility Wind Dir Wind Speed Gust Speed Precip Events Conditions
12:15 AM 68.0 °F - 68.0 °F 100% 29.81 in 2.5 mi ENE 3.5 mph - N/A   Overcast
12:35 AM 68.0 °F - 68.0 °F 100% 29.81 in 2.0 mi East 3.5 mph - N/A   Overcast
1:15 AM 71.6 °F - 71.6 °F 100% 29.80 in 1.8 mi East 3.5 mph - N/A   Overcast
1:35 AM 71.6 °F - 71.6 °F 100% 29.79 in 1.8 mi Calm Calm - N/A Rain Light Rain
1:55 AM 71.6 °F - 71.6 °F 100% 29.79 in 2.5 mi Calm Calm - N/A   Mostly Cloudy
2:15 AM 73.4 °F - 73.4 °F 100% 29.79 in 3.0 mi SE 3.5 mph - N/A   Scattered Clouds
2:35 AM 73.4 °F - 73.4 °F 100% 29.78 in 4.0 mi SE 5.8 mph - N/A   Mostly Cloudy
2:55 AM 73.4 °F - 73.4 °F 100% 29.78 in 5.0 mi SE 3.5 mph - N/A   Overcast
3:15 AM 73.4 °F - 73.4 °F 100% 29.78 in 5.0 mi SSE 3.5 mph - N/A   Mostly Cloudy
3:55 AM 73.4 °F - 73.4 °F 100% 29.77 in 6.0 mi SSE 4.6 mph - N/A   Mostly Cloudy
4:15 AM 73.4 °F - 73.4 °F 100% 29.78 in 7.0 mi SSE 4.6 mph - N/A   Mostly Cloudy
4:35 AM 73.4 °F - 73.4 °F 100% 29.78 in 5.0 mi Calm Calm - N/A   Overcast
4:55 AM 73.4 °F - 73.4 °F 100% 29.77 in 6.0 mi Calm Calm - N/A   Overcast
5:15 AM 73.4 °F - 73.4 °F 100% 29.77 in 6.0 mi Calm Calm - N/A   Overcast
5:55 AM 75.2 °F - 75.2 °F 100% 29.78 in 6.0 mi Calm Calm - N/A   Mostly Cloudy
6:35 AM 75.2 °F - 75.2 °F 100% 29.78 in 7.0 mi Calm Calm - N/A   Overcast
6:55 AM 75.2 °F - 75.2 °F 100% 29.79 in 7.0 mi SSE 4.6 mph - N/A   Overcast
7:15 AM 75.2 °F - 75.2 °F 100% 29.79 in 7.0 mi SE 3.5 mph - N/A   Mostly Cloudy
7:35 AM 75.2 °F - 75.2 °F 100% 29.80 in 5.0 mi SSE 4.6 mph - N/A   Mostly Cloudy
8:15 AM 75.2 °F - 75.2 °F 100% 29.81 in 7.0 mi South 5.8 mph - N/A   Overcast
8:35 AM 75.2 °F - 75.2 °F 100% 29.81 in 10.0 mi SSE 4.6 mph - N/A   Mostly Cloudy
8:55 AM 75.2 °F - 75.2 °F 100% 29.82 in 10.0 mi South 5.8 mph - N/A   Mostly Cloudy
9:15 AM 75.2 °F - 75.2 °F 100% 29.83 in 10.0 mi South 3.5 mph - N/A   Partly Cloudy
9:35 AM 77.0 °F - 77.0 °F 100% 29.84 in 10.0 mi South 4.6 mph - N/A   Mostly Cloudy
9:55 AM 77.0 °F - 77.0 °F 100% 29.84 in 10.0 mi South 5.8 mph - N/A   Mostly Cloudy
10:15 AM 77.0 °F - 77.0 °F 100% 29.85 in 10.0 mi South 4.6 mph - N/A   Overcast
10:35 AM 77.0 °F - 77.0 °F 100% 29.85 in 10.0 mi South 6.9 mph - N/A   Overcast
10:55 AM 80.6 °F 87.1 °F 77.0 °F 89% 29.84 in 10.0 mi South 6.9 mph - N/A   Scattered Clouds
11:15 AM 78.8 °F - 77.0 °F 94% 29.85 in 10.0 mi SSW 6.9 mph - N/A   Mostly Cloudy
11:35 AM 78.8 °F - 77.0 °F 94% 29.85 in 10.0 mi SW 4.6 mph - N/A   Mostly Cloudy
11:55 AM 80.6 °F 87.1 °F 77.0 °F 89% 29.85 in 10.0 mi SW 4.6 mph - N/A   Overcast
12:15 PM 80.6 °F 87.1 °F 77.0 °F 89% 29.86 in 10.0 mi WSW 8.1 mph - N/A   Mostly Cloudy
12:35 PM 78.8 °F - 75.2 °F 89% 29.86 in 10.0 mi SSW 3.5 mph - N/A   Mostly Cloudy
12:55 PM 82.4 °F 89.5 °F 75.2 °F 79% 29.85 in 10.0 mi WSW 4.6 mph - N/A   Scattered Clouds
1:15 PM 80.6 °F 86.2 °F 75.2 °F 84% 29.85 in 10.0 mi SSW 3.5 mph - N/A   Mostly Cloudy
1:35 PM 82.4 °F 89.5 °F 75.2 °F 79% 29.85 in 10.0 mi SSW 4.6 mph - N/A   Scattered Clouds
1:55 PM 82.4 °F 88.2 °F 73.4 °F 74% 29.84 in 10.0 mi SSW 5.8 mph - N/A   Scattered Clouds
2:15 PM 84.2 °F 89.6 °F 71.6 °F 66% 29.84 in 10.0 mi South 5.8 mph - N/A   Scattered Clouds
2:35 PM 82.4 °F 88.2 °F 73.4 °F 74% 29.84 in 10.0 mi SSW 3.5 mph - N/A   Mostly Cloudy
2:55 PM 82.4 °F 89.5 °F 75.2 °F 79% 29.84 in 10.0 mi SSE 3.5 mph - N/A   Scattered Clouds
3:15 PM 80.6 °F 87.1 °F 77.0 °F 89% 29.84 in 10.0 mi Calm Calm - N/A Rain Light Rain
3:35 PM 80.6 °F 87.1 °F 77.0 °F 89% 29.84 in 10.0 mi Calm Calm - N/A   Mostly Cloudy
3:55 PM 80.6 °F 86.2 °F 75.2 °F 84% 29.85 in 9.0 mi SSW 3.5 mph - N/A   Mostly Cloudy
4:15 PM 80.6 °F 86.2 °F 75.2 °F 84% 29.85 in 10.0 mi SSW 3.5 mph - N/A   Mostly Cloudy
4:35 PM 80.6 °F 86.2 °F 75.2 °F 84% 29.86 in 10.0 mi SW 3.5 mph - N/A   Scattered Clouds
4:55 PM 82.4 °F 89.5 °F 75.2 °F 79% 29.87 in 10.0 mi South 3.5 mph - N/A   Scattered Clouds
5:15 PM 80.6 °F 86.2 °F 75.2 °F 84% 29.87 in 10.0 mi SSW 5.8 mph - N/A   Scattered Clouds
5:35 PM 80.6 °F 86.2 °F 75.2 °F 84% 29.87 in 10.0 mi South 3.5 mph - N/A   Partly Cloudy
5:55 PM 82.4 °F 89.5 °F 75.2 °F 79% 29.87 in 10.0 mi South 4.6 mph - N/A   Partly Cloudy
6:15 PM 78.8 °F - 75.2 °F 89% 29.88 in 10.0 mi Calm Calm - N/A   Clear
6:35 PM 77.0 °F - 77.0 °F 100% 29.89 in 10.0 mi Calm Calm - N/A   Clear
6:55 PM 77.0 °F - 73.4 °F 89% 29.90 in 10.0 mi Calm Calm - N/A   Clear
7:15 PM 75.2 °F - 75.2 °F 100% 29.90 in 10.0 mi Calm Calm - N/A   Clear
7:35 PM 73.4 °F - 73.4 °F 100% 29.91 in 10.0 mi Calm Calm - N/A   Clear
7:55 PM 73.4 °F - 73.4 °F 100% 29.92 in 10.0 mi Calm Calm - N/A   Clear
8:15 PM 71.6 °F - 71.6 °F 100% 29.93 in 10.0 mi Calm Calm - N/A   Clear
8:35 PM 71.6 °F - 71.6 °F 100% 29.93 in 9.0 mi Calm Calm - N/A   Clear
8:55 PM 69.8 °F - 69.8 °F 100% 29.94 in 7.0 mi Calm Calm - N/A   Clear
9:15 PM 69.8 °F - 69.8 °F 100% 29.95 in 6.0 mi Calm Calm - N/A   Clear
9:35 PM 68.0 °F - 68.0 °F 100% 29.95 in 7.0 mi Calm Calm - N/A   Scattered Clouds
9:55 PM 68.0 °F - 68.0 °F 100% 29.96 in 10.0 mi Calm Calm - N/A   Partly Cloudy
10:15 PM 68.0 °F - 68.0 °F 100% 29.96 in 8.0 mi Calm Calm - N/A   Clear
10:35 PM 68.0 °F - 68.0 °F 100% 29.97 in 7.0 mi Calm Calm - N/A   Partly Cloudy
10:55 PM 69.8 °F - 69.8 °F 100% 29.98 in 7.0 mi Calm Calm - N/A   Scattered Clouds
11:15 PM 68.0 °F - 68.0 °F 100% 29.98 in 7.0 mi Calm Calm - N/A   Mostly Cloudy
11:35 PM 68.0 °F - 68.0 °F 100% 29.99 in 7.0 mi Calm Calm - N/A   Mostly Cloudy
11:55 PM 69.8 °F - 69.8 °F 100% 29.99 in 7.0 mi Calm Calm - N/A   Mostly Cloudy